Other Surface Observations
Issued by NWS Charleston, SC

Home | Current Version | Previous Version | Text Only | Print | Product List | Glossary On
Versions: 1 2 3 4 5 6 7 8 9 10 11 12 13 14 15 16 17 18 19 20 21 22 23 24 25 26 27 28 29 30 31 32 33 34 35 36 37 38 39 40 41 42 43 44 45 46 47 48 49 50
000
SXUS52 KCHS 141512
OSOCHS

MARINE OBSERVATIONS
NATIONAL WEATHER SERVICE CHARLESTON SC
1000 AM EST THU DEC 14 2017

...DOWNTOWN CHARLESTON AND HARBOR...

CITY           SKY/WX    TMP DP  RH WIND       PRES   REMARKS
WATERFRONT PRK   N/A     49  34  56 W7        29.81R

...LAKE MOULTRIE...

CITY           SKY/WX    TMP DP  RH WIND       PRES   REMARKS
PINOPOLIS        N/A     45  34  65 W14       29.86R

...LAKE AND SUPPLEMENTAL COASTAL OBSERVATIONS...

STATION/POSITION TIME  TEMP    WIND        PRES    WAVE   SWELL
                       AIR SEA DIR/SP/G            HT/PER HT/PER/DIR
                 (UTC) (F)     (DEG/KT/KT) (MB)    (FT/S) (FT/S/D)
FORT PULASKI     1448   50 53  260/  8/ 12 1015.6R
SAPELO ISLAND    1400   49     250/  7     1016.0
WINYAH BAY       NOT AVBL
LAKE MURRAY      1420   47     270/ 11/ 13 1010.8
ACE BASIN NERRS  1345   44     230/  4     1014.0


...C-MAN AND BUOY OBSERVATIONS...

STATION/POSITION TIME  TEMP    WIND        PRES    WAVE   SWELL
                       AIR SEA DIR/SP/G            HT/PER HT/PER/DIR
                 (UTC) (F)     (DEG/KT/KT) (MB)    (FT/S) (FT/S/D)
BUOY 41004       1450      73  270/ 19/ 25 1014.1R   7/ 8   3/210/ 8
BUOY 41008       1450   53 58  250/ 16/ 19 1015.7R   3/ 4
FOLLY BEACH CMAN 1500   49     260/  8/ 11 1014.8R
CAPERS NS BUOY   1408   48 55  270/ 16/ 19 1013.1R
FRIPP NS BUOY    1408   48 55  250/ 23/ 23 1012.8F
5E ST. MARYS GA  1500      62                N/A     2/ 2


STATION/POSITION TIME  TEMP    WIND        PRES    WAVE   SWELL
                       AIR SEA DIR/SP/G            HT/PER HT/PER/DIR
                 (UTC) (F)     (DEG/KT/KT) (MB)    (FT/S) (FT/S/D)
FRYING PAN BUOY  1500   56 67  270/ 19/ 23 1012.7
BUOY 41025       1500   55 73  270/ 19/ 25 1010.7
CAPE LOOKOUT NC  1500          260/ 17/ 19 1011.6R
BUOY 41002       1450   68 74  250/ 23/ 27 1013.6R  10/ 8
BUOY 41010       NOT AVBL
ST AUGUSTINE FL  1500   58 61  270/  7/  9 1018.1R

$$




USA.gov is the U.S. government's official web portal to all federal, state and local government web resources and services.